weather.gov     
National Weather Service

Regional Weather Roundup
NWS Homepage
This page is being discontinued on March 12, 2014.
The same data is available at this site. Please update your bookmarks.
Thank you, and we apologize for the inconvenience.
Please send an email to SR-SRH.Webmaster@noaa.gov with any concerns.


Current Version
Previous Version:    01  02  03  04  05  06  07  08  09  10  11  12  13  14  15  16  17  18  19  20  21  22  23  24  25  26  27  28  29  30  
   31  32  33  34  35  36  37  38  39  40  41  42  43  44  45  46  47  48  49  50  51  52  53  
[Printable]
636
ASUS46 KSGX 250310
RWRSGX

SAN DIEGO HOURLY WEATHER ROUNDUP
NATIONAL WEATHER SERVICE SAN DIEGO CA
700 PM PST SAT JAN 24 2015

NOTE: "FAIR" INDICATES FEW OR NO CLOUDS BELOW 12,000 FEET WITH NO
SIGNIFICANT WEATHER AND/OR OBSTRUCTIONS TO VISIBILITY.

CAZ042-043-060-061-PZZ750-775-250400-

GREATER SAN DIEGO AREA

CITY           SKY/WX    TMP DP  RH WIND       PRES   REMARKS
LINDBERGH FLD  PTCLDY    68  40  35 N3        30.00R
POINT LOMA       N/A     67  38  34 N7          N/A
NATIONAL CITY    N/A     64  42  45 CALM      29.99R
CHULA VISTA      N/A     62  39  43 CALM      29.92R
IMPERIAL BEACH CLEAR     62  37  39 NE5       29.99R
BROWN FIELD    CLEAR     61  29  29 E6        30.00R
MIRAMAR MCAS   CLEAR     61  22  22 E5        29.99S
MONTGOMERY FLD CLEAR     65  36  34 CALM      30.00R

$$

NORTH SAN DIEGO COUNTY

CITY           SKY/WX    TMP DP  RH WIND       PRES   REMARKS
CAMP PENDLETON CLEAR     69  20  15 NE7       29.99R
OCEANSIDE AP   CLEAR     63  26  24 CALM      29.98R
OCEANSIDE HBR    N/A     71  24  17 NE3       30.01R
VISTA            N/A     66  30  25 CALM      29.98S
CARLSBAD       CLEAR     69  20  15 E6        29.98S
DEL MAR          N/A     69  23  18 CALM      30.01R
LA JOLLA SCRIP   N/A     71  27  19 CALM      29.96
FALLBROOK        N/A     68  16  13 NW5       30.01R
ESCONDIDO        N/A     71  21  15 NE12      30.01R
SAN MARCOS       N/A     69  23  17 E2        29.98S
POWAY            N/A     66  24  20 CALM      30.01R

$$

EAST SAN DIEGO COUNTY

CITY           SKY/WX    TMP DP  RH WIND       PRES   REMARKS
RAMONA         CLEAR     64  15  15 NE5       30.03R
SANTEE LAKES     N/A     61  27  27 CALM      30.01R
LA MESA          N/A     66  29  25 CALM      29.94R
JAMUL            N/A     68  24  19 CALM      30.00R
DESCANSO N       N/A     58  18  21 E30       29.90R
MT. LAGUNA OBS   N/A     43  12  28 E18       29.71S
CAMPO            N/A     58  17  20 NE16G28   30.00S

$$

ORANGE COUNTY AND THE LOS ANGELES BASIN

CITY           SKY/WX    TMP DP  RH WIND       PRES   REMARKS
JOHN WAYNE AP  CLEAR     74  19  12 N9        29.99R
LAGUNA BEACH     N/A     67  32  27 N2        29.94R
LAKE FOREST FR   N/A     70  17  13 E13       29.87S
SANTA ANA        N/A     75  27  17 N1        29.95R
HUNTINGTON BCH   N/A     74  28  18 E7        30.00R
LOS ALAMITOS   FAIR      73  23  15 NE14G22   30.00R
FULLERTON      CLEAR     69  23  17 E6        30.00R
LONG BEACH     CLEAR     68  29  23 CALM      30.00R
L.A. AP        CLEAR     65  39  38 W3        30.00R
L.A. DOWNTOWN  CLEAR     67  33  28 CALM      29.99R

$$

THE INLAND EMPIRE

CITY           SKY/WX    TMP DP  RH WIND       PRES   REMARKS
CORONA         CLEAR     69  22  17 SE3       30.07R
CHINO          CLEAR     68  24  19 E12       30.05R
ONTARIO        CLEAR     70  17  13 E13       30.03R
SAN BERNARDINO CLEAR    N/A N/A N/A S6        30.08R
RIVERSIDE AP   CLEAR     69  19  15 NE7       30.07R
RIV CYN CREST    N/A     65  38  36 S2          N/A
MORENO VALLEY    N/A     64  29  27 E5        29.26R
MARCH ARB      CLEAR     64  20  19 NE9       30.08R
HORSETHIEF CYN   N/A     61  21  21 SW6       30.02R
PERRIS           N/A     67  25  20 E7          N/A
MENIFEE          N/A     68  27  21 NE7       30.12R
HEMET EAST       N/A     60  13  16 CALM      30.05R
FRENCH VALLEY  FAIR      61  25  25 CALM      30.06R
TEMECULA         N/A     67  25  21 NE5       30.00R

$$

SAN BERNARDINO AND RIVERSIDE COUNTY MOUNTAINS

CITY           SKY/WX    TMP DP  RH WIND       PRES   REMARKS
BIG BEAR AP    CLEAR     32  16  51 E5        30.30R WCI  27
PINE COVE        N/A     51   5  15 N2        30.13R

$$

SOUTHERN DESERT INCLUDING THE COACHELLA VALLEY

CITY           SKY/WX    TMP DP  RH WIND       PRES   REMARKS
PALM SPRINGS   CLEAR     72  18  13 NW9       30.10R
THOUSAND PALMS   N/A     67  22  18 CALM      30.06S
PALM DESERT      N/A     68  27  21 CALM      27.95S
THERMAL        CLEAR     65  23  20 NW8       30.04R
BLYTHE         CLEAR     65  18  16 NW10      30.06R
IMPERIAL AP    CLEAR     55  26  32 SW5       30.04R
EL CENTRO NAS  CLEAR     57  23  26 W8        30.05R
YUMA AZ        CLEAR     68  19  15 N8        30.03R
MEXICALI       CLEAR     61  27  27 NW6       30.04R

$$

UPPER DESERT

CITY           SKY/WX    TMP DP  RH WIND       PRES   REMARKS
VICTORVILLE AP CLEAR     52  21  30 S6        30.21S
HESPERIA         N/A     51  25  36 CALM      30.36R
APPLE VALLEY     N/A     55  19  24 CALM      30.23R
PALMDALE       CLEAR     52  23  32 SE18      30.18S
LANCASTER      CLEAR     51  24  34 N6        30.19R
EDWARDS AFB    CLEAR     53  25  33 SE7       30.17R
DAGGETT        CLEAR     55  21  26 CALM      30.19R
29 PALMS N     CLEAR     57  20  23 W13       30.24R
NEEDLES        CLEAR     66  17  15 N13       30.13R

$$

REGIONAL REPORTS

CITY           SKY/WX    TMP DP  RH WIND       PRES   REMARKS
SANTA BARBARA  CLEAR     58  41  53 NE5       30.03R
SANDBERG       CLEAR     51  19  28 E9        30.23R
MT. WILSON       N/A     52   5  15 MISG        N/A
LAS VEGAS NV   CLEAR     59  21  23 SW9       30.19R
PHOENIX AZ     CLEAR     64  20  18 CALM      30.02R
TIJUANA        CLEAR     66  16  14 NE8       30.01R

$$

OFFSHORE ISLANDS

CITY           SKY/WX    TMP DP  RH WIND       PRES   REMARKS
CATALINA ARPT  CLEAR     65  29  25 E12       30.06R
SAN NICOLAS IS CLEAR    N/A N/A N/A NW9       30.02R

$$

MARINE AND OFFSHORE BUOY REPORTS

STATION/POSITION SKY/WX   TEMP    WIND        PRES    SWELL
                          AIR SEA DIR/SP/G            HT/PER/DIR
                          (F)     (DEG/KT/KT) (MB)    (FT/S/D)
TANNER BANKS               67 62   30/  4/  6 1015.5R  10/270/17
S CLEMENTE BASIN           64 63  250/  4/  6 1015.1S   8/280/17
SAN NICOLAS IS.               62                N/A     7/300/17
SO. S. ROSA ISLA           63 61  330/  8/ 10 1016.5R  10/16
W. S. BARBARA CH           62 60  340/ 10/ 12 1016.9R   8/300/15
S. MONICA BASIN            67 62   50/ 10/ 12 1016.0R   5/250/16
S PEDRO CHANNEL               62                N/A     5/270/17
DANA POINT                    62                N/A     3/260/17
CMP PENDLETON NS              62                N/A     3/240/17
OCEANSIDE OFFSHR              62                N/A     3/260/17
TORREY PINES OTR              62                N/A     3/270/17
LA JOLLA 1                 73 62   80/  7/  8 1015.4R
MISSION BAY BUOY              63                N/A     5/270/17
SAN DIEGO BAY                 62              1015.9R
POINT LOMA SOUTH              63                N/A     5/270/18

$$





U.S. Dept. of Commerce
NOAA National Weather Service
1325 East West Highway
Silver Spring, MD 20910
E-mail: w-nws.webmaster@noaa.gov
Page last modified: May 16, 2007
NATIONAL WEATHER SERVICE: for Safety, for Work, for Fun - FOR LIFE